192  
ASUS42 KTBW 161216  
RWRFL  
FLORIDA REGIONAL WEATHER ROUNDUP  
NATIONAL WEATHER SERVICE TAMPA BAY RUSKIN FL  
800 AM EDT SAT OCT 16 2021  
 
NOTE: "FAIR" INDICATES FEW OR NO CLOUDS BELOW 12,000 FEET WITH NO  
SIGNIFICANT WEATHER AND/OR S TO VISIBILITY
.  
 
FLZ001>010-012>015-112-114-115-161300-  
PANHANDLE FLORIDA  
 
CITY SKY/WX TMP DP RH WIND PRES REMARKS
 
PENSACOLA CLEAR 77 75 93 W5 29.96R  
PENSACOLA NAS PTCLDY 74 72 93 CALM 29.96R  
MILTON NAS CLOUDY 73 72 96 NW9G18 29.98  
CRESTVIEW FOG 68 67 96 CALM 29.98R VSB 1/2  
DUKE FIELD FAIR 73 72 95 W5 29.96S  
VALPARAISO CLEAR 72 69 90 CALM 29.95S  
MARY ESTHER PTCLDY 76 73 90 CALM 29.95S  
TRI COUNTY FAIR 67 67 100 CALM 29.97S FOG  
PANAMA CITY FAIR 69 68 96 CALM 29.96R  
TYNDALL AFB CLEAR 77 72 85 W5 29.96S  
APALACHICOLA CLEAR 70 70 100 CALM 29.96S  
 
STATION/POSITION SKY/WX TEMP WIND PRES WAVE SWELL
 
AIR SEA DIR/SP/G HT/PER HT/PER  
(F) (DEG/KT/KT) (MB) (FT/S) (FT/S)  
30.1N 87.6W 81 81 260/ 12/ 16 N/A 2/ 3  
29.2N 88.2W 81 81 280/ 10/ 12 1015.5R 1/ 6 2/ 6  
28.8N 86.0W 80 290/ 10/ 12 N/A  
PANAMA CITY BEAC 270/ 14/ 16 N/A  
TOWER C 79 310/ 12/ 13 1015.1R  
28.5N 84.5W 83 320/ 8/ 8 1014.0R 0  
 

 
FLZ011-016>038-118-127-128-134-139-239-161300-  
NORTH FLORIDA  
 
CITY SKY/WX TMP DP RH WIND PRES REMARKS
 
MARIANNA CLOUDY 72 71 97 CALM 29.95S FOG  
TALLAHASSEE MOCLDY 68 67 96 CALM 29.97R FOG  
LIVE OAK MOCLDY 64 64 100 CALM 29.97R  
CROSS CITY CLEAR 65 65 97 CALM 29.98R  
LAKE CITY FAIR 64 64 100 CALM 29.98R  
GAINESVILLE CLEAR 64 63 96 W3 30.00S  
WILLISTON FAIR 62 61 98 CALM 29.98S  
PALATKA CLOUDY 61 59 94 CALM 29.98R FOG  
MAYPORT NAS CLEAR 73 71 93 W5 29.96S  
JACKSONVILLE PTCLDY 66 66 100 W5 29.96R FOG  
JAX NAS PTCLDY 70 69 97 W3 29.97S  
JAX CECIL FOG 63 63 100 CALM 29.97S VSB 1  
FERNANDINA BEA FAIR 70 68 94 W5 29.97R  
ST AUGUSTINE CLEAR 69 68 96 W5 29.98R  
PALM COAST PTCLDY N/A N/A N/A CALM 29.97R  
 
STATION/POSITION SKY/WX TEMP WIND PRES WAVE SWELL
 
AIR SEA DIR/SP/G HT/PER HT/PER  
(F) (DEG/KT/KT) (MB) (FT/S) (FT/S)  
SHELL POINT NOT AVBL  
KEATON BEACH 71 CALM / 1 1015.3R  
CEDAR KEY 79 160/ 2/ 2 1015.0R  
FERNANDINA 75 80 230/ 3/ 6 1014.7S  
30.7N 81.3W 75 79 N/A 2/ 9  
MAYPORT 73 80 260/ 4/ 6 1014.8F  
31.4N 80.9W 76 80 250/ 14/ 16 1013.4R 2/ 8 2/ 8  
ST AUGUSTINE 72 81 260/ 3/ 4 1015.0R  
 

 
FLZ040-043>046-052-053-057-058-063-144-161300-  
INTERIOR CENTRAL FLORIDA  
 
CITY SKY/WX TMP DP RH WIND PRES REMARKS
 
OCALA CLEAR 64 63 96 CALM 29.99R FOG  
LEESBURG CLEAR 72 70 93 CALM 29.98S  
SANFORD CLEAR 69 67 93 W3 29.97R  
ORLANDO EXEC PTCLDY 72 70 93 NW3 29.97S  
ORLANDO INTL PTCLDY 74 70 87 CALM 29.97S  
KISSIMMEE MOCLDY 70 68 93 CALM 29.99R  
WINTER HAVEN PTCLDY 72 70 93 CALM 29.98S FOG  
LAKELAND PTCLDY 70 68 94 CALM 29.98R  
BARTOW PTCLDY 68 66 94 CALM 29.98R  
SEBRING FAIR 70 70 99 CALM 29.98R  
OKEECHOBEE CLEAR 70 70 100 N3 29.96R  
 

 
FLZ041-047-054-059-064-141-147-161300-  
EAST CENTRAL FLORIDA  
 
CITY SKY/WX TMP DP RH WIND PRES REMARKS
 
ORMOND BEACH PTCLDY 66 66 100 W5 29.98R FOG  
DAYTONA BEACH PTCLDY 70 67 90 W3 29.97R FOG  
DELAND CLEAR 68 67 96 CALM 29.98S  
NEW SMYRNA BEA PTCLDY 70 68 94 W3 29.96R  
TITUSVILLE CLEAR 72 70 94 CALM 29.97R  
CAPE CANAVERAL CLEAR 71 68 92 CALM 29.95R  
PATRICK AFB CLEAR 75 74 97 W8 29.95R  
MELBOURNE CLEAR 70 68 93 W6 29.96R  
VERO BEACH CLEAR 72 69 90 NW6 29.96R  
FT PIERCE CLEAR 70 69 97 NW3 29.95S  
STUART PTCLDY 73 68 83 MISG 29.96R  
 
STATION/POSITION SKY/WX TEMP WIND PRES WAVE SWELL
 
AIR SEA DIR/SP/G HT/PER HT/PER  
(F) (DEG/KT/KT) (MB) (FT/S) (FT/S)  
28.5N 80.2W 80 84 320/ 4/ 6 1013.6R 3/ 8 3/ 8  
28.9N 78.5W 79 83 20/ 6/ 8 1014.2R  
TRIDENT PIER 73 83 20/ 2/ 3 1014.4R  
28.4N 80.5W 83 N/A 2/ 8  
27.5N 80.2W 82 N/A 3/11 2/11  
 

 
FLZ050-056-061-142-242-148-248-149-249-151-251-155-255-  
160-260-161300-  
WEST CENTRAL FLORIDA  
 
CITY SKY/WX TMP DP RH WIND PRES REMARKS
 
CRYSTAL RIVER FAIR 64 64 100 CALM 29.98S  
INVERNESS FAIR 63 63 100 CALM 29.98S FOG  
BROOKSVILLE CLEAR 63 63 100 CALM 29.98S FOG  
CLEARWATER AIR FAIR 72 70 94 CALM 29.97R  
ST PETE CLEARW CLEAR 73 71 93 CALM 29.97R  
TAMPA INTL MOCLDY 76 70 82 CALM 29.97S  
TAMPA EXEC PTCLDY 70 68 94 CALM 29.98S  
PLANT CITY PTCLDY 70 70 100 CALM 29.99S  
MACDILL AFB CLEAR 72 71 96 CALM 29.94R  
PETER O KNIGHT CLOUDY 73 72 94 CALM 29.97S  
ST PETERSBURG CLEAR 79 72 79 SE3 29.95R  
SARASOTA CLEAR 72 71 97 CALM 29.95R  
VENICE N/A 73 72 94 NE5 29.97R  
 
STATION/POSITION SKY/WX TEMP WIND PRES WAVE SWELL
 
AIR SEA DIR/SP/G HT/PER HT/PER  
(F) (DEG/KT/KT) (MB) (FT/S) (FT/S)  
27.3N 84.3W 82 N/A 1  
CLEARWATER BEACH 77 84 100/ 4/ 5 1014.9R  
MIDDLE TAMPA BAY 120/ 4/ 5 N/A  
VENICE 74 84 60/ 6/ 7 1014.2R  
 

 
FLZ066-069-070-075>078-162-262-165-265-161300-  
SOUTHWEST FLORIDA AND KEYS  
 
CITY SKY/WX TMP DP RH WIND PRES REMARKS
 
PUNTA GORDA CLEAR 71 71 100 E3 29.97R FOG  
FT MYERS CLEAR 75 70 84 CALM 29.95R  
SOUTHWEST INTL CLEAR 72 69 90 CALM 29.96R  
NAPLES MOCLDY 75 74 96 NE3 29.96R  
MARCO ISLAND PTCLDY 74 72 93 CALM 29.97R  
IMMOKALEE FAIR 72 70 94 CALM 29.96R  
MARATHON MOCLDY 78 73 84 CALM 29.93R  
KEY WEST NAS MOCLDY 83 74 74 CALM 29.94R  
KEY WEST INTL CLOUDY 80 74 81 S3 29.95R  
 
STATION/POSITION SKY/WX TEMP WIND PRES WAVE SWELL
 
AIR SEA DIR/SP/G HT/PER HT/PER  
(F) (DEG/KT/KT) (MB) (FT/S) (FT/S)  
NAPLES 79 84 1015.0R  
26.0N 85.6W 80 84 20/ 4/ 6 1013.4R 1/ 4  
DRY TORTUGAS NOT AVBL  
SAND KEY 80 120/ 6/ 7 1014.3R  
SOMBRERO KEY 60/ 4/ 5 1012.9R  
LONG KEY 82 1013.6R  
 

 
FLZ067-068-071>074-168-172>174-161300-  
SOUTHEAST FLORIDA  
 
CITY SKY/WX TMP DP RH WIND PRES REMARKS
 
W PALM BEACH PTCLDY 73 71 93 CALM 29.95R  
FT LAUDER-EXEC PTCLDY 75 73 93 CALM 29.95R  
FT LAUDERDALE CLEAR 76 76 100 N5 29.94R  
POMPANO BEACH PTCLDY 76 71 85 NW3 29.95R  
PEMBROKE PINES CLEAR 74 71 91 N3 29.97R  
OPA LOCKA CLEAR 76 71 85 N3 29.96R  
MIAMI PTCLDY 78 73 84 CALM 29.95R  
WEST KENDALL CLEAR 73 72 96 CALM 29.95R  
HOMESTEAD CLEAR 74 71 92 CALM 29.94R  
 
STATION/POSITION SKY/WX TEMP WIND PRES WAVE SWELL
 
AIR SEA DIR/SP/G HT/PER HT/PER  
(F) (DEG/KT/KT) (MB) (FT/S) (FT/S)  
VIRGINIA KEY 78 87 320/ 3/ 4 1014.4R  
LAKE WORTH 76 83 320/ 5/ 6 1013.4R  
FOWEY ROCKS 80 83 320/ 9/ 10 1014.5R  
SETTLEMENT POINT 80 310/ 5/ 6 1014.1R  
 

 
 
 
 
CLICK HERE TO GO TO PREVIOUS BULLETINS.

The Nexlab FL Page Main Text Page